TimeWIB,TemperatureF,Dew PointF,Humidity,Sea Level PressureIn,VisibilityMPH,Wind Direction,Wind SpeedMPH,Gust SpeedMPH,PrecipitationIn,Events,Conditions,WindDirDegrees,DateUTC
12:00 AM,75.2,66.2,73,29.83,-9999.0,SW,3.5,-,N/A,,Clear,230,2013-09-19 17:00:00
12:30 AM,75.2,64.4,69,29.83,-9999.0,SW,4.6,-,N/A,,Clear,230,2013-09-19 17:30:00
1:00 AM,73.4,64.4,73,29.83,-9999.0,WSW,6.9,-,N/A,,Clear,250,2013-09-19 18:00:00
1:30 AM,73.4,64.4,73,29.80,-9999.0,West,5.8,-,N/A,,Clear,260,2013-09-19 18:30:00
2:00 AM,73.4,66.2,78,29.80,-9999.0,West,8.1,-,N/A,,Clear,270,2013-09-19 19:00:00
2:30 AM,73.4,66.2,78,29.80,-9999.0,West,8.1,-,N/A,,Clear,270,2013-09-19 19:30:00
3:00 AM,71.6,66.2,83,29.80,-9999.0,West,8.1,-,N/A,,Clear,260,2013-09-19 20:00:00
3:30 AM,71.6,66.2,83,29.80,-9999.0,West,6.9,-,N/A,,Clear,260,2013-09-19 20:30:00
4:00 AM,71.6,66.2,83,29.83,-9999.0,WSW,5.8,-,N/A,,Clear,250,2013-09-19 21:00:00
4:30 AM,71.6,64.4,78,29.83,-9999.0,WSW,3.5,-,N/A,,Clear,240,2013-09-19 21:30:00
5:00 AM,69.8,64.4,83,29.83,-9999.0,West,1.2,-,N/A,,Clear,270,2013-09-19 22:00:00
5:30 AM,69.8,64.4,83,29.83,-9999.0,South,2.3,-,N/A,,Clear,190,2013-09-19 22:30:00
6:00 AM,71.6,66.2,83,29.86,-9999.0,WSW,3.5,-,N/A,,Clear,240,2013-09-19 23:00:00
6:30 AM,73.4,68.0,83,29.86,5.0,WSW,3.5,-,N/A,,Clear,240,2013-09-19 23:30:00
7:00 AM,75.2,68.0,78,29.86,-9999.0,West,3.5,-,N/A,,Clear,260,2013-09-20 00:00:00
8:00 AM,80.6,66.2,61,29.89,-9999.0,Variable,2.3,-,N/A,,Clear,0,2013-09-20 01:00:00
8:30 AM,82.4,66.2,58,29.89,-9999.0,Variable,2.3,-,N/A,,Clear,0,2013-09-20 01:30:00
9:00 AM,84.2,66.2,55,29.89,-9999.0,Variable,2.3,-,N/A,,Clear,0,2013-09-20 02:00:00
9:30 AM,84.2,66.2,55,29.89,-9999.0,SSE,6.9,-,N/A,,Clear,150,2013-09-20 02:30:00
10:00 AM,86.0,68.0,55,29.89,-9999.0,ENE,6.9,-,N/A,,Clear,70,2013-09-20 03:00:00
10:30 AM,86.0,68.0,55,29.86,-9999.0,East,6.9,-,N/A,,Clear,80,2013-09-20 03:30:00
11:00 AM,87.8,69.8,55,29.86,6.2,East,8.1,-,N/A,,Partly Cloudy,100,2013-09-20 04:00:00
11:30 AM,86.0,69.8,58,29.83,6.2,ESE,8.1,-,N/A,,Partly Cloudy,110,2013-09-20 04:30:00
12:00 PM,86.0,69.8,58,29.80,6.2,East,9.2,-,N/A,,Partly Cloudy,90,2013-09-20 05:00:00
12:30 PM,86.0,69.8,58,29.80,6.2,East,9.2,-,N/A,,Partly Cloudy,80,2013-09-20 05:30:00
1:00 PM,86.0,68.0,55,29.80,6.2,East,10.4,-,N/A,,Partly Cloudy,90,2013-09-20 06:00:00
1:30 PM,87.8,66.2,49,29.77,6.2,East,9.2,-,N/A,,Partly Cloudy,90,2013-09-20 06:30:00
2:00 PM,87.8,66.2,49,29.77,6.2,East,9.2,-,N/A,,Partly Cloudy,90,2013-09-20 07:00:00
2:30 PM,87.8,66.2,49,29.77,-9999.0,East,10.4,-,N/A,,Clear,100,2013-09-20 07:30:00
3:00 PM,-9999,-9999,N/A,29.74,-9999.0,East,8.1,-,N/A,,Clear,100,2013-09-20 08:00:00
3:30 PM,87.8,60.8,40,29.74,-9999.0,East,9.2,-,N/A,,Clear,90,2013-09-20 08:30:00
4:00 PM,87.8,57.2,35,29.74,-9999.0,East,11.5,-,N/A,,Clear,90,2013-09-20 09:00:00
4:30 PM,87.8,59.0,38,29.74,-9999.0,East,11.5,-,N/A,,Clear,90,2013-09-20 09:30:00
5:00 PM,86.0,60.8,43,29.77,-9999.0,East,10.4,-,N/A,,Clear,100,2013-09-20 10:00:00
5:30 PM,82.4,64.4,54,29.77,-9999.0,ESE,8.1,-,N/A,,Clear,110,2013-09-20 10:30:00
6:00 PM,80.6,66.2,61,29.77,-9999.0,ESE,8.1,-,N/A,,Clear,110,2013-09-20 11:00:00
6:30 PM,80.6,68.0,65,29.80,-9999.0,ESE,10.4,-,N/A,,Clear,110,2013-09-20 11:30:00
7:00 PM,80.6,68.0,65,29.80,-9999.0,ESE,9.2,-,N/A,,Clear,120,2013-09-20 12:00:00
7:30 PM,80.6,69.8,70,29.83,-9999.0,ESE,9.2,-,N/A,,Clear,120,2013-09-20 12:30:00
8:00 PM,78.8,68.0,69,29.83,-9999.0,ESE,6.9,-,N/A,,Clear,120,2013-09-20 13:00:00
8:30 PM,80.6,66.2,61,29.83,-9999.0,SE,5.8,-,N/A,,Clear,140,2013-09-20 13:30:00
9:30 PM,78.8,66.2,65,29.86,-9999.0,Variable,1.2,-,N/A,,Clear,0,2013-09-20 14:30:00
10:00 PM,78.8,66.2,65,29.86,-9999.0,Variable,1.2,-,N/A,,Clear,0,2013-09-20 15:00:00
10:30 PM,78.8,66.2,65,29.86,-9999.0,Variable,2.3,-,N/A,,Clear,0,2013-09-20 15:30:00
11:00 PM,77.0,66.2,69,29.86,-9999.0,WSW,3.5,-,N/A,,Clear,240,2013-09-20 16:00:00
11:30 PM,77.0,66.2,69,29.86,-9999.0,WSW,3.5,-,N/A,,Clear,240,2013-09-20 16:30:00